NO-83 (40655 NORAD) Tracking and Keplerian Element Data

This shows tracking and keplerian element data for the satellite.

Feedback or suggestion? Click here.




ElementValue
Catalog40655
NameNO-83
Epoch Orbit12394
Epoch Day234.24302827
Epoch Year2019
RAAN107.1282
Inclination54.9635
Eccentricity0.004387
Argument of Perigee205.2629
Mean Anonmoly154.6275
Mean Motion15.85940423
Decay Rate0.00043737
L11 40655U 15025E 19234.24302827 .00043737 11409-4 17381-3 0 8614
L22 40655 54.9635 107.1282 0043870 205.2629 154.6275 15.85940423123943

Live tracking and technical data element details for NO-83 (NORAD 40655). NO-83 can be tracked NOW for your location showing map with azimuth and elevation plus other details from your city location.

Track the satellite on the map from your city or location and see movement details for azimuth, elevation, latitude, longitude, range, height, and movement on the map or in text.







IsCatalogInMostPopularTable: catalog: 40655, numindb: 154
Update: records affected: 1



GetName: 40655 NO-83

Hit Count: updated at: Sun, 25 Aug 2019 18:28:13 GMT